Powrót do katalogu

STARLINK-36792

AktywnyŁącznośćSSO
NORAD 67804·PAYLOAD·🇺🇸 United States

Wystrzelony Feb 15, 2026 z Vandenberg Space Force Base

Loading…

Następne Przeloty (najbliższe 24 godziny)

TLE

ŚwieżeSource: CelesTrak SupGP

Epoka: Sep 15, 2026, 04:23 UTC

1 67804C 26032H   26258.18312500 -.00054039  00000+0 -16759-2 0  2581
2 67804  97.2851  84.6032 0001892  91.2804   7.5314 15.33495549    15

Śledź STARLINK-36792 w czasie rzeczywistym z AllMySat

Download on the App Store